Weather History for Pittsburgh Allegheny Co., PA

Change the Weather History Date:

Tuesday, March 27, 2012

  Actual Average Record
Temperature  
Mean Temperature 38 °F -  
Max Temperature 52 °F 52 °F 82 °F (1989)
Min Temperature 26 °F 31 °F 19 °F (1990)
Degree Days  
Heating Degree Days 26    
Moisture  
Dew Point 13 °F    
Average Humidity 38    
Maximum Humidity 61    
Minimum Humidity 20    
Precipitation  
Precipitation 0.00 in - - ()
Sea Level Pressure  
Sea Level Pressure 30.29 in    
Wind  
Wind Speed 5 mph (SSE)    
Max Wind Speed 8 mph    
Max Gust Speed -    
Visibility 10 miles    
Events      
Averages and records for this station are not official NWS values.
T = Trace of Precipitation, MM = Missing Value Source: NWS Daily Summary

Daily Weather History Graph

Daily Weather History Graph

Search for Another Location

Airport:

Trip Planner

Search our weather history database for the weather conditions in past years. The results will help you decide how hot, cold, wet, or windy it might be!

Date:

Astronomy

Mar. 27, 2012 Rise Set
Actual Time 7:10 AM EDT 7:39 PM EDT
Civil Twilight 6:43 AM EDT 8:06 PM EDT
Nautical Twilight 6:11 AM EDT 8:39 PM EDT
Astronomical Twilight 5:38 AM EDT 9:12 PM EDT
Moon 9:39 AM EDT (3/27) No Moon Set
Length of Visible Light 13h 23m
Length of Day
12h 28m
Waxing Crescent, 22% of the Moon is Illuminated
Mar 27
Waxing Crescent
Mar 30
First Quarter
Apr 6
Full
Apr 13
Last Quarter
Apr 21
New

Hourly Weather History & Observations

Time (EDT) Temp. Windchill Dew Point Humidity Pressure Visibility Wind Dir Wind Speed Gust Speed Precip Events Conditions
12:53 AM 32.0 °F 25.6 °F 16.0 °F 52% 30.33 in 10.0 mi NNW 6.9 mph - N/A   Clear
1:53 AM 30.9 °F 23.5 °F 16.0 °F 54% 30.34 in 10.0 mi North 8.1 mph - N/A   Clear
2:53 AM 28.9 °F 21.9 °F 16.0 °F 58% 30.35 in 10.0 mi North 6.9 mph - N/A   Clear
3:53 AM 28.0 °F 21.7 °F 15.1 °F 58% 30.35 in 10.0 mi North 5.8 mph - N/A   Clear
4:53 AM 27.0 °F 20.5 °F 15.1 °F 61% 30.36 in 10.0 mi North 5.8 mph - N/A   Clear
5:53 AM 27.0 °F - 15.1 °F 61% 30.37 in 10.0 mi Calm Calm - N/A   Clear
6:53 AM 26.1 °F - 12.9 °F 58% 30.38 in 10.0 mi Calm Calm - N/A   Clear
7:53 AM 27.0 °F - 14.0 °F 58% 30.39 in 10.0 mi Calm Calm - N/A   Clear
8:53 AM 28.9 °F 23.9 °F 12.9 °F 51% 30.40 in 10.0 mi NE 4.6 mph - N/A   Clear
9:53 AM 30.9 °F 27.5 °F 10.9 °F 43% 30.40 in 10.0 mi South 3.5 mph - N/A   Clear
10:53 AM 34.0 °F 28.8 °F 10.0 °F 37% 30.40 in 10.0 mi SE 5.8 mph - N/A   Clear
11:53 AM 37.9 °F 35.5 °F 12.9 °F 36% 30.40 in 10.0 mi Variable 3.5 mph - N/A   Clear
12:53 PM 42.1 °F 40.2 °F 10.9 °F 28% 30.38 in 10.0 mi Variable 3.5 mph - N/A   Clear
1:53 PM 44.1 °F 42.5 °F 9.0 °F 24% 30.35 in 10.0 mi WSW 3.5 mph - N/A   Clear
2:53 PM 46.9 °F - 8.1 °F 21% 30.30 in 10.0 mi Calm Calm - N/A   Clear
3:53 PM 48.9 °F - 10.9 °F 22% 30.27 in 10.0 mi SE 4.6 mph - N/A   Clear
4:53 PM 50.0 °F - 10.9 °F 21% 30.24 in 10.0 mi Variable 3.5 mph - N/A   Clear
5:53 PM 51.1 °F - 10.9 °F 20% 30.22 in 10.0 mi SSE 5.8 mph - N/A   Clear
6:53 PM 50.0 °F - 10.9 °F 21% 30.20 in 10.0 mi SSW 6.9 mph - N/A   Clear
7:53 PM 48.9 °F - 12.0 °F 23% 30.17 in 10.0 mi South 3.5 mph - N/A   Clear
8:53 PM 48.0 °F - 12.9 °F 24% 30.15 in 10.0 mi South 5.8 mph - N/A   Clear
9:53 PM 48.0 °F - 14.0 °F 26% 30.12 in 10.0 mi SSE 6.9 mph - N/A   Clear
10:53 PM 46.9 °F - 15.1 °F 28% 30.09 in 10.0 mi SSE 6.9 mph - N/A   Clear
11:53 PM 46.9 °F - 16.0 °F 29% 30.06 in 10.0 mi South 6.9 mph - N/A   Clear